Regional Weather Roundup
Issued by NWS

Home | Current Version | Previous Version | Graphics & Text | Print | Product List | Glossary On
Versions: 1 2 3 4 5 6 7 8 9 10 11 12 13 14 15 16 17 18 19 20 21 22 23 24 25 26 27 28 29 30 31 32 33 34 35 36 37 38 39 40 41 42 43 44 45 46 47 48 49 50
000
ASUS45 KBOU 291607
RWRCO

WEATHER ROUNDUP FOR COLORADO
NATIONAL WEATHER SERVICE DENVER/BOULDER CO
1000 AM MDT FRI AUG 29 2014

NOTE: "FAIR" INDICATES FEW OR NO CLOUDS BELOW 12000 FEET WITH NO
SIGNIFICANT WEATHER AND/OR OBSTRUCTIONS TO VISIBILITY.

COZ001>005-013-030-031-291700-
...NORTHWEST COLORADO...

CITY           SKY/WX    TMP DP  RH WIND       PRES   REMARKS
CRAIG          SUNNY     64  49  57 NE3       30.25S
HAYDEN         SUNNY     59  46  63 SE8       30.27S
MEEKER         SUNNY     62  47  57 CALM      30.27S
MOUNT WERNER   NOT AVBL
STEAMBOAT SPGS SUNNY     55  48  76 CALM      30.29S
WALDEN         MOSUNNY   55  45  67 SW3       30.34R
$$

COZ006>008-011-291700-
...WEST CENTRAL VALLEYS...

CITY           SKY/WX    TMP DP  RH WIND       PRES   REMARKS
GRAND JUNCTION SUNNY     67  51  56 SE8       30.19S
MONTROSE       CLOUDY    62  49  62 CALM      30.27S
EAGLE          MOSUNNY   55  46  71 CALM      30.32F
RIFLE          SUNNY     63  49  60 CALM      30.24F
DELTA          MOSUNNY   63  49  60 CALM      30.23F
NUCLA          NOT AVBL
$$

COZ017>023-064>068-291700-
...SOUTHWEST COLORADO...

CITY           SKY/WX    TMP DP  RH WIND       PRES   REMARKS
DURANGO        SUNNY     66  38  35 CALM      30.26S
CORTEZ         SUNNY     64  43  46 CALM      30.25R
PAGOSA SPRINGS SUNNY     64  33  30 SE5       30.32S
TELLURIDE      SUNNY     57  37  47 CALM      30.41R
WOLF CREEK PAS SUNNY     45  28  53 NE10G20   30.55S
$$

COZ009-010-012-014-032>034-037-058>063-291700-
...CENTRAL COLORADO...

CITY           SKY/WX    TMP DP  RH WIND       PRES   REMARKS
ASPEN          MOSUNNY   58  45  62 CALM      30.34F
BUENA VISTA    SUNNY     60  39  46 E5        30.34S
COPPER MTN     PTSUNNY   45  36  70 W14G21    30.57S
BERTHOUD PASS  CLOUDY    37  36  93 N17G24    30.58R
COTTONWOOD PAS SUNNY     59  32  36 CALM      30.45R
GUNNISON       SUNNY     52  39  62 CALM      30.40S
KREMMLING      CLOUDY    46  43  87 CALM      30.36S
LEADVILLE      SUNNY     52  38  58 N8        30.44S
MONARCH PASS   SUNNY     43  36  75 SW7       30.66S
SALIDA         SUNNY     60  42  50 CALM      30.39F
SUNLIGHT       MOSUNNY   52  37  58 NW3       30.53S
WILKERSON PASS NOT AVBL
$$

COZ069>075-291700-
...SAN LUIS VALLEY/SANGRE DE CRISTO MOUNTAINS...

CITY           SKY/WX    TMP DP  RH WIND       PRES   REMARKS
ALAMOSA        SUNNY     59  41  51 CALM      30.34R
LA VETA PASS   NOT AVBL
SAGUACHE       NOT AVBL
$$

COZ035-036-038>040-291700-
...NORTHERN COLORADO FRONT RANGE...

CITY           SKY/WX    TMP DP  RH WIND       PRES   REMARKS
DENVER INTL AP MOSUNNY   72  47  40 SW10      30.11S
DMNS CITY PARK   N/A     71  49  45 S6        30.11S
AURORA         MOSUNNY   71  47  43 S7        30.14F
FRONT RANGE AP NOT AVBL
ERIE MUNI ARPT MOSUNNY   75  44  33 CALM      30.09S
BOULDER MUN AP MOSUNNY   73  46  38 CALM      30.09F
CENTENNIAL     MOSUNNY   70  42  36 S3        30.15S
BROOMFIELD     MOSUNNY   68  48  49 NW3       30.13S
FORT COLLINS   SUNNY     70  52  52 SE6       30.10S
LONGMONT       SUNNY     74  56  53 E3        30.10S
$$

COZ041-046-047-076>085-087-088-291700-
...PIKES PEAK/PALMER DIVIDE AND SOUTHERN FOOTHILLS...

CITY           SKY/WX    TMP DP  RH WIND       PRES   REMARKS
COLO. SPRINGS  MOSUNNY   74  38  27 N8        30.18S
A. F. ACADEMY  SUNNY     71  40  32 N8        30.19F
ELLICOTT       SUNNY     73  39  29 N10       30.17R
FALCON         SUNNY     71  37  29 N8        30.23R
FORT CARSON    SUNNY     72  43  34 NW3       30.16S
LIMON          SUNNY     73  45  36 N10       30.12R
MONUMENT HILL  PTSUNNY   66  41  39 NW9       30.23R
TRINIDAD       SUNNY     75  41  29 NW12      30.18S
$$

COZ042>045-048>051-090-091-291700-
...NORTHEAST COLORADO...

CITY           SKY/WX    TMP DP  RH WIND       PRES   REMARKS
GREELEY ARPT   SUNNY     70  48  46 NW3       30.09S
AKRON          SUNNY     68  53  58 W13       30.06R
BURLINGTON     SUNNY     76  47  35 NW12      30.03S
WRAY             N/A     77  55  46 W6        29.99S
STERLING       SUNNY     72  61  68 SW6       30.01F
HOLYOKE        SUNNY     79  55  44 NW7       29.98F
FORT MORGAN    SUNNY     69  53  57 W5        30.06S
$$

COZ086-089-092>099-291700-
...SOUTHEAST COLORADO...

CITY           SKY/WX    TMP DP  RH WIND       PRES   REMARKS
PUEBLO         SUNNY     77  44  30 W12       30.10S
LA JUNTA       SUNNY     71  52  50 W13       30.07R
LAMAR          SUNNY     73  54  51 W8        30.02S
SPRINGFIELD      N/A     77  48  35 NW13      30.06S
$$


USA.gov is the U.S. government's official web portal to all federal, state and local government web resources and services.